Regional Weather Roundup
Issued by NWS Goodland, KS

Home | Current Version | Previous Version | Graphics & Text | Print | Product List | Glossary On
Versions: 1 2 3 4 5 6 7 8 9 10 11 12 13 14 15 16 17 18 19 20 21 22 23 24 25 26 27 28 29 30 31 32 33 34 35 36 37 38 39 40 41 42 43 44 45 46 47 48 49 50
177
ASUS43 KGLD 110459
RWRGLD

GOODLAND FORECAST AREA HOURLY WEATHER ROUNDUP
NATIONAL WEATHER SERVICE GOODLAND KS
1000 PM MST SAT DEC 10 2016

...OFFICIAL OBSERVATIONS...

CITY           SKY/WX    TMP DP  RH WIND       PRES   REMARKS
GOODLAND KS    CLOUDY    31  25  78 S7        29.67F
HILL CITY KS   CLOUDY    27  22  81 CALM      29.73F
IMPERIAL NEB   CLOUDY    28  24  85 S5        29.67F
MCCOOK NEB     CLOUDY    26  23  88 NE3       29.71F
AKRON CO       CLOUDY    35  25  66 SW7       29.69F
BURLINGTON CO  CLOUDY    27  18  69 W9        29.69F
LIMON CO       CLOUDY    26  20  77 CALM      29.72S
$$

...UNOFFICIAL OBSERVATIONS...

CITY           SKY/WX    TMP DP  RH WIND       PRES   REMARKS
COLBY KS       CLEAR     32  28  86 S7        29.69F
LENORA KS        N/A     27  32 100 MISG        N/A
NORTON KS      CLEAR     28  21  74 CALM      29.71S
OBERLIN KS     FAIR      30  23  74 CALM      29.73F
SHARON SPRINGS   N/A     27  24  86 N5          N/A
TRENTON NEB      N/A     28  32 100 CALM        N/A
KIT CARSON CO    N/A     27  18  68 CALM        N/A
YUMA CO        FAIR      32  28  86 W9        29.68F
$$




USA.gov is the U.S. government's official web portal to all federal, state and local government web resources and services.